Location: Alma
(38.7220°N, 88.9090°W)
Time: 04:27:31
(UTC-06:00)

Transit 2A - Pass Details

Date: 26 November 2019
Orbit: 602 x 957 km, 66.7° (Epoch: 08 December)

Event Time Altitude Azimuth Distance (km) Brightness Sun altitude
Rises 19:04:14 0° 333° (NNW) 2,860 9.2 -28.5°
Reaches altitude 10° 19:06:27 10° 335° (NNW) 1,965 8.3 -28.9°
Enters shadow 19:07:10 15° 337° (NNW) 1,684 7.9 -29.1°
